TimeMST,TemperatureF,Dew PointF,Humidity,Sea Level PressureIn,VisibilityMPH,Wind Direction,Wind SpeedMPH,Gust SpeedMPH,PrecipitationIn,Events,Conditions,WindDirDegrees,DateUTC
12:56 AM,32.0,21.0,64,30.45,10.0,NNW,8.1,-,N/A,,Overcast,340,2013-02-15 07:56:00
1:56 AM,32.0,19.0,59,30.45,10.0,SW,3.5,-,N/A,,Overcast,220,2013-02-15 08:56:00
2:56 AM,30.9,19.9,64,30.45,10.0,WNW,6.9,-,N/A,,Overcast,300,2013-02-15 09:56:00
3:56 AM,27.0,19.0,72,30.47,10.0,NNW,3.5,-,N/A,,Mostly Cloudy,340,2013-02-15 10:56:00
4:56 AM,27.0,18.0,69,30.48,10.0,ESE,3.5,-,N/A,,Mostly Cloudy,110,2013-02-15 11:56:00
5:56 AM,28.0,19.0,69,30.49,10.0,Calm,Calm,-,N/A,,Overcast,0,2013-02-15 12:56:00
6:56 AM,27.0,19.0,72,30.51,10.0,SSE,8.1,-,N/A,,Overcast,160,2013-02-15 13:56:00
7:56 AM,27.0,18.0,69,30.51,10.0,South,6.9,-,N/A,,Overcast,180,2013-02-15 14:56:00
8:56 AM,27.0,18.0,69,30.53,10.0,South,4.6,-,N/A,,Mostly Cloudy,170,2013-02-15 15:56:00
9:56 AM,30.0,19.0,64,30.52,10.0,Calm,Calm,-,N/A,,Clear,0,2013-02-15 16:56:00
10:56 AM,34.0,19.9,56,30.49,10.0,East,4.6,-,N/A,,Clear,90,2013-02-15 17:56:00
11:56 AM,39.0,19.0,45,30.44,10.0,Calm,Calm,-,N/A,,Clear,0,2013-02-15 18:56:00
12:04 PM,39.2,17.6,42,30.37,1.8,Calm,Calm,-,N/A,,Haze,0,2013-02-15 19:04:00
12:16 PM,37.4,17.6,45,30.36,10.0,ENE,5.8,-,N/A,,Clear,70,2013-02-15 19:16:00
12:56 PM,37.0,19.9,50,30.43,10.0,East,9.2,-,N/A,,Clear,80,2013-02-15 19:56:00
1:56 PM,37.9,19.9,48,30.40,10.0,East,8.1,-,N/A,,Clear,100,2013-02-15 20:56:00
2:56 PM,37.9,21.0,51,30.39,10.0,SE,8.1,-,N/A,,Clear,130,2013-02-15 21:56:00
3:56 PM,37.9,23.0,55,30.39,10.0,SE,5.8,-,N/A,,Clear,140,2013-02-15 22:56:00
4:56 PM,36.0,23.0,59,30.38,10.0,East,8.1,-,N/A,,Clear,90,2013-02-15 23:56:00
5:56 PM,36.0,19.9,52,30.37,10.0,Variable,3.5,-,N/A,,Clear,0,2013-02-16 00:56:00
6:56 PM,33.1,19.9,59,30.38,10.0,SSW,6.9,-,N/A,,Clear,200,2013-02-16 01:56:00
7:56 PM,27.0,19.0,72,30.40,10.0,NNW,4.6,-,N/A,,Clear,330,2013-02-16 02:56:00
8:56 PM,30.0,19.9,66,30.38,10.0,Calm,Calm,-,N/A,,Clear,0,2013-02-16 03:56:00
9:56 PM,28.0,19.9,72,30.37,10.0,Calm,Calm,-,N/A,,Clear,0,2013-02-16 04:56:00
10:56 PM,19.0,14.0,81,30.38,10.0,SSE,3.5,-,N/A,,Clear,150,2013-02-16 05:56:00
11:56 PM,23.0,17.1,78,30.35,10.0,SE,6.9,-,N/A,,Clear,140,2013-02-16 06:56:00